EW4392 Weather Reports


Display with metric or nautical units.
time (UTC)temp
F
wind
direction
speed
MPH
gust
MPH
rain 1hr
in
rain 24hr
in
rain mn
in
humidity
%
barometer
mb
20260502123022 47 52 0.0 4.0 0.00 0.00 0.00 61 1013.7
20260502121507 47 59 1.0 3.0 0.00 0.00 0.00 61 1013.6
20260502114504 47 50 0.0 8.0 0.00 0.00 0.00 60 1013.5
20260502113002 47 348 4.0 13.0 0.00 0.00 0.00 59 1013.1
20260502111603 48 73 2.0 8.0 0.00 0.00 0.00 58 1013.2
20260502110059 48 317 3.0 8.0 0.00 0.00 0.00 57 1013.1
20260502104557 48 83 2.0 14.0 0.00 0.00 0.00 57 1013.0
20260502103105 48 307 3.0 8.0 0.00 0.00 0.00 55 1013.3
20260502101603 49 78 1.0 4.0 0.00 0.00 0.00 55 1013.3
20260502100113 49 12 0.0 8.0 0.00 0.00 0.00 56 1013.1
20260502070029 51 219 0.0 3.0 0.00 0.00 0.00 66 1012.7
20260502064528 51 70 0.0 7.0 0.00 0.00 0.00 66 1012.7
20260502063027 52 334 0.0 2.0 0.00 0.00 0.00 65 1012.8
20260502061533 52 307 2.0 7.0 0.00 0.00 0.00 64 1012.9
20260502060023 53 315 0.0 9.0 0.00 0.00 0.00 63 1013.1
20260502054519 53 349 2.0 8.0 0.00 0.00 0.00 63 1012.7
20260502053017 53 230 2.0 10.0 0.00 0.00 0.00 62 1012.9
20260502051522 54 46 3.0 9.0 0.00 0.00 0.00 62 1012.9
20260502050012 54 327 0.0 6.0 0.00 0.00 0.00 63 1013.0
20260502044509 55 329 0.0 3.0 0.00 0.00 0.00 62 1012.9
20260502043005 55 324 3.0 9.0 0.00 0.00 0.00 62 1012.8
20260502041507 56 330 0.0 5.0 0.00 0.00 0.00 64 1012.8
20260502040002 56 320 0.0 10.0 0.00 0.00 0.00 62 1012.6
20260502034600 56 283 8.0 15.0 0.00 0.00 0.00 61 1012.5
20260502033059 57 34 5.0 14.0 0.00 0.00 0.00 61 1012.2
20260502031601 58 301 5.0 13.0 0.00 0.00 0.00 60 1012.1
20260502030111 58 305 2.0 14.0 0.00 0.00 0.00 58 1011.9
20260502024605 59 322 5.0 12.0 0.00 0.00 0.00 57 1011.9
20260502023057 59 297 6.0 13.0 0.00 0.00 0.00 56 1011.7
20260502021602 59 316 4.0 8.0 0.00 0.00 0.00 61 1011.4
20260502020055 58 306 0.0 1.0 0.00 0.00 0.00 65 1010.6
20260502014554 58 315 0.0 0.0 0.00 0.00 0.00 65 1010.6
20260502013053 58 320 0.0 0.0 0.00 0.00 0.00 63 1010.7
20260502011553 58 330 0.0 2.0 0.00 0.00 0.00 62 1010.4
20260502010107 59 322 0.0 1.0 0.00 0.00 0.00 61 1010.3
20260502004559 60 296 0.0 1.0 0.00 0.00 0.00 60 1009.9
20260502003051 61 214 0.0 2.0 0.00 0.00 0.00 56 1009.8
20260502001551 61 121 0.0 4.0 0.00 0.00 0.00 56 1009.7
20260502000051 62 54 0.0 2.0 0.00 0.00 0.00 54 1009.4
20260501234550 62 311 1.0 3.0 0.00 0.00 0.00 54 1009.2
20260501233049 62 125 1.0 7.0 0.00 0.00 0.00 53 1008.9
20260501231548 63 211 1.0 6.0 0.00 0.00 0.00 53 1008.8
20260501230058 63 215 3.0 8.0 0.00 0.00 0.00 51 1008.8
20260501224547 64 216 2.0 9.0 0.00 0.00 0.00 50 1008.7
20260501223053 65 198 2.0 8.0 0.00 0.00 0.00 48 1008.8
20260501221543 65 119 3.0 9.0 0.00 0.00 0.00 48 1009.0
20260501220047 65 212 4.0 12.0 0.00 0.00 0.00 47 1009.0
20260501214553 65 80 4.0 11.0 0.00 0.00 0.00 48 1009.2
20260501213040 65 65 3.0 9.0 0.00 0.00 0.00 47 1009.2
20260501211543 65 112 4.0 11.0 0.00 0.00 0.00 46 1009.3
20260501210044 65 258 3.0 10.0 0.00 0.00 0.00 48 1009.6
20260501204607 65 129 4.0 9.0 0.00 0.00 0.00 45 1009.7
20260501203036 66 145 3.0 8.0 0.00 0.00 0.00 45 1009.8
20260501201534 65 124 1.0 11.0 0.00 0.00 0.00 48 1010.1
20260501200031 66 160 5.0 11.0 0.00 0.00 0.00 44 1010.4
20260501194529 66 105 3.0 8.0 0.00 0.00 0.00 45 1010.7
20260501193029 65 191 3.0 8.0 0.00 0.00 0.00 47 1011.1
20260501191525 65 130 1.0 9.0 0.00 0.00 0.00 46 1011.3
20260501190023 64 167 3.0 7.0 0.00 0.00 0.00 46 1011.5
20260501184525 64 126 4.0 9.0 0.00 0.00 0.00 44 1011.6
20260501183017 64 207 4.0 10.0 0.00 0.00 0.00 46 1011.8
20260501181513 63 112 3.0 11.0 0.00 0.00 0.00 46 1012.0
20260501180016 63 152 4.0 9.0 0.00 0.00 0.00 49 1012.4
20260501174529 62 140 3.0 7.0 0.00 0.00 0.00 50 1012.6
20260501173008 62 133 4.0 9.0 0.00 0.00 0.00 48 1012.9
20260501171503 61 139 3.0 10.0 0.00 0.00 0.00 50 1013.2
20260501170001 61 348 0.0 7.0 0.00 0.00 0.00 53 1013.4
20260501164601 60 126 4.0 9.0 0.00 0.00 0.00 49 1013.6
20260501163057 59 248 3.0 8.0 0.00 0.00 0.00 50 1014.0
20260501161557 58 140 4.0 10.0 0.00 0.00 0.00 53 1014.2
20260501160100 58 104 3.0 8.0 0.00 0.00 0.00 52 1014.3
20260501154553 58 223 2.0 8.0 0.00 0.00 0.00 55 1014.5
20260501153052 57 135 3.0 9.0 0.00 0.00 0.00 54 1014.7
20260501151545 56 105 0.0 9.0 0.00 0.00 0.00 56 1014.9
20260501150043 56 313 1.0 7.0 0.00 0.00 0.00 56 1014.9
20260501144542 55 88 2.0 6.0 0.00 0.00 0.00 57 1015.1
20260501143040 55 147 0.0 7.0 0.00 0.00 0.00 58 1015.2